Date,TemperatureHighF,TemperatureAvgF,TemperatureLowF,DewpointHighF,DewpointAvgF,DewpointLowF,HumidityHigh,HumidityAvg,HumidityLow,PressureMaxIn,PressureMinIn,WindSpeedMaxMPH,WindSpeedAvgMPH,GustSpeedMaxMPH,PrecipitationSumIn
2013-1-1,42.3,35.4,28.9,15.0,12.5,10.0,52,40,28,30.42,30.29,11,4,15,0.00
2013-1-2,46.7,38.5,30.2,16.0,13.0,11.0,51,36,26,30.38,30.22,14,4,21,0.00
2013-1-3,47.1,38.7,31.8,12.0,6.8,1.0,37,28,15,30.40,30.27,22,4,23,0.00
2013-1-4,46.7,39.2,28.0,10.0,6.4,4.0,47,26,18,30.42,30.30,8,2,12,0.00
2013-1-5,47.4,40.6,33.4,13.0,8.4,5.0,33,27,20,30.44,30.22,10,2,11,0.00
2013-1-6,51.7,42.4,35.7,21.0,14.1,8.0,47,32,21,30.22,29.99,10,2,16,0.00
2013-1-7,55.3,45.6,35.6,24.0,15.5,9.0,56,33,17,30.14,30.02,16,4,20,0.00
2013-1-8,63.9,49.8,38.0,31.0,24.6,12.0,49,38,26,30.25,30.09,6,0,10,0.00
2013-1-9,57.5,48.8,39.1,30.0,27.9,26.0,65,46,32,30.25,29.87,8,2,11,0.00
2013-1-10,53.7,46.2,35.3,33.0,19.5,1.0,58,36,20,29.88,29.67,21,7,29,0.00
2013-1-11,43.1,34.8,28.0,16.0,9.6,5.0,47,35,25,30.10,29.88,9,2,15,0.00
2013-1-12,38.2,31.1,24.6,10.0,4.8,1.0,50,34,21,30.21,30.08,9,2,12,0.00
2013-1-13,38.0,28.6,21.1,6.0,3.1,-3.0,46,34,25,30.30,30.18,15,4,19,0.00
2013-1-14,37.6,26.6,20.1,2.0,-0.5,-3.0,40,31,21,30.54,30.30,14,6,18,0.00
2013-1-15,40.4,30.5,18.8,13.0,6.5,1.0,48,37,29,30.66,30.53,9,3,14,0.00
2013-1-16,50.6,40.1,29.3,20.0,17.2,12.0,56,40,29,30.61,30.42,10,3,17,0.00
2013-1-17,57.4,44.5,37.0,17.0,14.0,11.0,41,30,20,30.48,30.33,10,2,17,0.00
2013-1-18,54.4,46.2,37.1,16.0,13.4,12.0,40,27,20,30.40,30.27,9,3,13,0.00
2013-1-19,58.6,48.3,39.2,14.0,11.0,9.0,32,23,15,30.41,30.26,10,3,12,0.00
2013-1-20,61.0,50.6,41.9,13.0,10.2,8.0,26,20,13,30.31,30.18,7,3,11,0.00
2013-1-21,60.3,50.9,41.0,12.0,7.5,5.0,25,18,11,30.31,30.17,10,3,14,0.00
2013-1-22,60.3,53.0,43.2,15.0,11.1,7.0,27,19,14,30.26,30.16,9,4,12,0.00
2013-1-23,59.2,53.6,46.7,19.0,15.0,10.0,25,22,17,30.25,30.13,6,2,9,0.00
2013-1-24,55.8,51.9,49.4,42.0,33.5,17.0,70,53,23,30.25,30.11,7,1,9,0.00
2013-1-25,57.0,52.3,47.7,47.0,41.4,38.0,88,67,56,30.25,30.01,7,1,10,0.00
2013-1-26,55.5,51.2,48.9,50.0,47.3,45.0,94,87,77,30.00,29.81,11,3,15,0.30
2013-1-27,56.1,51.2,43.2,46.0,36.9,27.0,80,59,47,29.87,29.79,21,9,25,0.00
2013-1-28,45.4,41.9,37.9,28.0,17.5,9.0,60,39,23,30.09,29.86,18,5,23,0.00
2013-1-29,53.8,43.9,33.2,28.0,22.5,15.0,55,43,34,30.29,30.06,11,3,16,0.00
2013-1-30,60.2,49.0,39.3,31.0,27.2,24.0,56,44,30,30.37,30.23,10,2,13,0.00
2013-1-31,60.6,51.3,43.4,33.0,29.8,27.0,57,45,28,30.31,30.18,7,2,10,0.00
2013-2-1,61.5,52.2,41.3,33.0,30.2,25.0,64,44,31,30.27,30.17,8,2,10,0.00
2013-2-2,61.2,54.8,48.1,31.0,27.4,24.0,51,36,24,30.33,30.17,8,2,11,0.00
2013-2-3,63.0,56.7,51.1,35.0,29.6,25.0,48,36,29,30.16,30.00,10,2,12,0.00
2013-2-4,63.8,55.3,47.0,33.0,26.2,21.0,53,34,21,30.13,29.99,8,3,10,0.00
2013-2-5,67.6,57.4,48.4,29.0,24.2,16.0,39,28,17,30.01,29.82,9,3,14,0.00
2013-2-6,64.9,57.3,45.8,30.0,21.3,12.0,44,26,14,30.03,29.79,16,4,18,0.00
2013-2-7,64.8,53.2,40.7,27.0,22.1,17.0,48,31,18,30.10,29.73,19,5,25,0.00
2013-2-8,52.6,45.1,38.2,31.0,23.3,18.0,62,43,29,29.75,29.66,26,12,41,0.00
2013-2-9,50.5,42.8,36.7,28.0,22.8,19.0,69,47,31,30.00,29.74,14,4,14,0.00
2013-2-10,49.7,42.1,36.3,24.0,17.5,14.0,56,38,25,30.06,29.93,9,4,20,0.00
2013-2-11,50.7,40.3,32.2,24.0,15.3,7.0,58,38,22,30.29,30.06,8,1,17,0.00
2013-2-12,50.3,41.4,32.2,15.0,11.8,9.0,41,30,22,30.41,30.29,8,3,13,0.00
2013-2-13,58.1,47.6,37.2,24.0,19.5,13.0,45,33,25,30.34,30.18,8,2,12,0.00
2013-2-14,66.4,52.7,39.4,29.0,25.2,22.0,54,36,23,30.29,30.16,11,1,17,0.00
2013-2-15,67.2,52.4,41.0,26.0,23.3,20.0,49,33,19,30.40,30.29,11,2,16,0.00
2013-2-16,66.8,51.4,39.0,26.0,21.8,15.0,51,33,20,30.36,29.99,4,0,8,0.00
2013-2-17,68.0,55.6,42.8,20.0,13.7,6.0,37,21,10,29.99,29.79,8,2,12,0.00
2013-2-18,58.6,50.1,37.8,22.0,18.3,16.0,46,29,20,30.06,29.86,11,3,16,0.00
2013-2-19,61.1,51.4,43.5,28.0,21.9,15.0,53,33,18,29.85,29.52,22,8,29,0.00
2013-2-20,52.2,44.3,38.8,33.0,28.3,24.0,74,55,37,29.87,29.49,16,3,19,0.00
2013-2-21,51.1,42.7,37.6,31.0,17.5,12.0,69,38,22,30.09,29.87,9,2,11,0.00
2013-2-22,56.1,45.3,35.0,15.0,12.8,10.0,40,28,17,30.23,30.09,8,3,12,0.00
2013-2-23,58.7,48.6,39.7,23.0,14.9,3.0,39,26,14,30.12,29.84,22,8,32,0.00
2013-2-24,51.9,43.1,36.5,12.0,7.4,1.0,32,24,12,30.27,30.08,21,7,29,0.00
2013-2-25,58.7,44.8,32.6,12.0,9.1,-1.0,39,25,9,30.32,30.03,12,3,15,0.00
2013-2-26,53.4,45.2,37.5,14.0,9.9,4.0,35,25,14,30.29,30.07,23,6,28,0.00
2013-2-27,58.6,45.7,35.5,14.0,10.2,1.0,38,25,14,30.43,30.30,12,2,15,0.00
2013-2-28,63.9,51.8,39.2,12.0,8.5,2.0,28,18,12,30.45,30.34,8,2,11,0.00
2013-3-1,68.4,57.9,47.8,27.0,19.6,10.0,35,23,19,30.46,30.27,12,3,15,0.00
2013-3-2,76.1,61.2,46.0,34.0,29.4,23.0,50,31,21,30.31,29.99,6,1,12,0.00
2013-3-3,71.5,64.4,55.6,34.0,29.3,22.0,43,27,22,29.99,29.71,28,10,36,0.00
2013-3-4,71.8,59.0,48.9,36.0,31.9,25.0,55,38,23,30.05,29.77,13,1,20,0.00
2013-3-5,70.9,58.8,44.1,32.0,28.7,26.0,53,33,20,30.08,29.85,19,5,29,0.00
2013-3-6,65.3,57.4,50.1,34.0,31.0,24.0,52,38,24,29.91,29.78,16,8,23,0.00
2013-3-7,57.6,52.3,46.2,33.0,31.6,30.0,57,46,36,29.88,29.78,14,5,21,0.00
2013-3-8,50.3,45.4,39.9,39.0,34.6,32.0,83,67,51,29.85,29.67,20,7,32,0.00
2013-3-9,58.9,49.2,41.8,37.0,32.9,28.0,78,56,32,30.19,29.85,18,6,22,0.00
2013-3-10,63.2,53.7,44.5,34.0,21.3,16.0,61,30,17,30.32,30.18,18,6,21,0.00
2013-3-11,68.7,56.6,42.5,26.0,22.9,20.0,49,29,18,30.24,30.06,10,2,12,0.00
2013-3-12,72.4,62.8,53.2,31.0,26.6,22.0,33,26,18,30.16,30.03,11,3,14,0.00
2013-3-13,77.4,67.3,57.4,34.0,29.7,26.0,34,25,17,30.20,30.06,9,3,13,0.00
2013-3-14,82.3,71.2,60.9,33.0,28.1,24.0,30,21,13,30.14,29.95,9,3,11,0.00
2013-3-15,86.4,73.3,60.9,34.0,25.6,14.0,32,18,7,29.95,29.73,14,4,25,0.00
2013-3-16,82.4,72.7,61.3,29.0,19.7,-1.0,26,15,5,29.77,29.62,15,5,19,0.00
2013-3-17,77.8,68.7,59.2,24.0,10.8,-3.0,25,12,5,29.83,29.62,11,4,19,0.00
2013-3-18,74.2,65.4,56.6,15.0,8.5,3.0,16,11,8,29.95,29.79,12,4,17,0.00
2013-3-19,75.0,66.7,57.6,25.0,17.6,8.0,21,15,10,29.97,29.80,14,3,19,0.00
2013-3-20,70.9,66.9,62.3,35.0,29.1,19.0,33,25,17,29.93,29.70,23,10,33,0.00
2013-3-21,74.0,65.1,53.6,34.0,19.5,2.0,44,21,7,29.79,29.64,20,5,24,0.00
2013-3-22,69.9,61.4,54.2,17.0,3.3,-23.0,23,12,3,29.80,29.65,21,6,23,0.00
2013-3-23,57.7,49.8,41.8,12.0,5.8,-18.0,25,18,4,30.14,29.82,17,8,28,0.00
2013-3-24,65.4,54.6,42.1,16.0,7.0,1.0,24,15,9,30.12,29.92,9,3,10,0.00
2013-3-25,73.1,61.0,49.3,19.0,13.5,9.0,26,16,10,30.02,29.84,8,3,15,0.00
2013-3-26,76.3,67.8,59.5,28.0,17.5,4.0,24,15,6,29.84,29.67,18,7,26,0.00
2013-3-27,73.3,66.3,59.0,35.0,29.2,22.0,35,26,15,29.83,29.71,19,7,29,0.00
2013-3-28,74.4,65.4,57.9,37.0,33.5,29.0,46,32,20,29.94,29.83,14,5,20,0.00
2013-3-29,80.2,69.9,60.6,35.0,30.0,22.0,33,23,16,30.03,29.89,11,4,15,0.00
2013-3-30,80.4,70.7,63.5,34.0,28.9,23.0,31,21,16,29.97,29.84,10,2,12,0.00
2013-3-31,76.2,68.7,60.4,39.0,33.8,29.0,44,28,19,29.88,29.75,26,10,27,0.00
2013-4-1,71.9,61.7,52.3,39.0,33.2,26.0,57,37,19,29.91,29.80,22,9,28,0.00
2013-4-2,72.9,64.2,51.2,32.0,29.4,27.0,41,28,21,29.95,29.85,18,3,23,0.00
2013-4-3,79.1,67.3,57.4,38.0,31.1,26.0,44,27,15,30.04,29.90,10,2,12,0.00
2013-4-4,82.6,70.9,63.3,41.0,30.0,24.0,36,23,12,29.94,29.75,19,5,23,0.00
2013-4-5,79.1,68.5,58.2,40.0,33.6,25.0,48,29,15,29.85,29.73,21,7,30,0.00
2013-4-6,79.3,70.7,60.7,33.0,28.8,22.0,33,22,12,29.85,29.71,13,5,20,0.00
2013-4-7,81.0,71.8,61.5,33.0,26.4,11.0,33,20,7,29.77,29.42,20,7,28,0.00
2013-4-8,67.6,55.9,45.1,39.0,28.6,13.0,79,38,12,29.58,29.24,29,11,40,0.00
2013-4-9,64.1,55.1,48.8,24.0,19.6,15.0,32,25,15,30.02,29.59,24,13,33,0.00
2013-4-10,73.0,59.6,46.1,24.0,18.6,12.0,36,22,11,30.13,29.91,16,4,21,0.00
2013-4-11,76.9,65.0,55.8,26.0,19.8,14.0,26,18,13,29.91,29.65,6,2,11,0.00
2013-4-12,84.7,69.5,57.5,38.0,31.0,21.0,38,24,17,29.81,29.64,9,2,13,0.00
2013-4-13,82.8,74.5,64.0,30.0,25.3,15.0,26,17,8,29.70,29.43,25,12,32,0.00
2013-4-14,82.8,71.6,62.6,37.0,31.8,26.0,36,24,16,29.58,29.34,24,8,32,0.00
2013-4-15,75.6,64.0,55.1,35.0,30.4,24.0,41,29,17,29.52,29.34,24,10,32,0.00
2013-4-16,59.6,52.8,46.0,33.0,26.7,20.0,53,38,23,29.87,29.50,16,5,27,0.00
2013-4-17,59.8,51.5,43.5,27.0,18.5,7.0,51,29,12,30.19,29.87,21,8,25,0.00
2013-4-18,63.3,52.7,41.6,21.0,13.5,6.0,38,23,11,30.30,30.19,13,3,19,0.00
2013-4-19,75.0,62.5,48.5,25.0,11.3,5.0,24,14,7,30.24,29.89,13,4,20,0.00
2013-4-20,82.0,69.0,55.6,34.0,23.2,5.0,30,18,9,29.98,29.84,8,2,14,0.00
2013-4-21,88.1,72.0,54.7,33.0,26.0,22.0,30,19,10,29.96,29.76,15,2,21,0.00
2013-4-22,90.5,78.1,64.6,32.0,28.1,21.0,24,16,11,29.79,29.57,11,3,16,0.00
2013-4-23,73.4,62.0,53.9,28.0,14.3,0.0,26,16,8,30.00,29.66,24,5,28,0.00
2013-4-24,75.2,65.2,54.3,15.0,6.6,-2.0,19,10,5,29.96,29.78,17,4,21,0.00
2013-4-25,81.5,69.5,58.5,22.0,14.5,6.0,21,13,6,29.86,29.77,9,4,17,0.00
2013-4-26,82.7,73.0,59.6,35.0,22.9,13.0,36,17,8,30.03,29.86,9,3,14,0.00
2013-4-27,86.9,76.4,63.0,30.0,17.6,10.0,24,12,6,30.05,29.83,9,4,14,0.00
2013-4-28,92.6,81.1,68.5,25.0,14.5,6.0,15,8,4,29.85,29.64,10,3,20,0.00
2013-4-29,94.1,84.4,74.3,39.0,19.2,5.0,25,10,5,29.67,29.47,21,6,24,0.00
2013-4-30,89.5,81.1,72.1,36.0,30.0,25.0,24,16,10,29.57,29.43,19,10,26,0.00
2013-5-1,76.6,68.0,58.8,31.0,2.1,-13.0,19,8,3,30.21,29.58,22,12,30,0.00
2013-5-2,74.0,63.5,53.2,14.0,6.4,1.0,16,11,6,30.37,30.11,21,9,33,0.00
2013-5-3,84.7,71.7,57.9,23.0,2.9,-27.0,19,9,1,30.11,29.68,11,4,14,0.00
2013-5-4,87.4,76.6,65.3,24.0,4.4,-8.0,15,6,4,29.68,29.43,18,6,28,0.00
2013-5-5,76.5,70.9,63.8,27.0,20.8,17.0,25,15,11,29.68,29.52,23,8,31,0.00
2013-5-6,72.8,64.4,56.8,48.0,36.9,27.0,56,37,25,29.81,29.67,16,5,27,0.03
2013-5-7,71.6,60.7,53.1,39.0,36.7,34.0,57,42,28,29.89,29.79,13,3,22,0.00
2013-5-8,76.4,63.7,54.5,43.0,38.2,34.0,51,40,27,29.98,29.88,12,2,19,0.00
2013-5-9,76.8,65.9,56.5,45.0,41.2,39.0,56,42,29,29.95,29.87,6,1,15,0.00
2013-5-10,88.8,72.5,57.2,47.0,41.9,36.0,60,37,18,30.02,29.90,7,1,12,0.00
2013-5-11,94.4,77.8,63.1,44.0,37.9,32.0,45,26,13,30.05,29.92,6,1,15,0.00
2013-5-12,98.2,83.2,67.8,40.0,34.2,30.0,30,18,10,30.01,29.82,8,1,13,0.00
2013-5-13,102.8,88.0,76.3,39.0,32.7,29.0,25,14,9,29.88,29.69,10,2,17,0.00
2013-5-14,96.9,87.4,76.8,38.0,32.8,20.0,20,15,8,29.72,29.53,26,9,33,0.00
2013-5-15,94.1,81.3,69.0,41.0,34.8,28.0,29,19,13,29.72,29.59,15,7,24,0.00
2013-5-16,91.0,79.6,69.4,36.0,31.7,24.0,26,18,9,29.65,29.51,20,9,28,0.00
2013-5-17,80.8,72.3,64.7,42.0,36.8,33.0,37,28,21,29.75,29.54,19,9,26,0.00
2013-5-18,86.2,73.9,60.4,43.0,36.3,25.0,44,27,13,29.83,29.70,10,3,18,0.00
2013-5-19,86.7,75.6,64.0,37.0,31.3,25.0,32,20,14,29.84,29.70,14,2,20,0.00
2013-5-20,86.9,72.6,60.2,36.0,30.0,25.0,37,22,12,29.96,29.82,8,1,17,0.00
2013-5-21,90.3,77.8,61.3,37.0,27.7,21.0,25,17,8,29.83,29.52,19,6,29,0.00
2013-5-22,89.3,78.4,69.6,35.0,28.6,17.0,27,17,7,29.53,29.40,24,12,31,0.00
2013-5-23,83.9,72.5,59.4,35.0,21.8,10.0,31,17,6,29.71,29.46,21,9,29,0.00
2013-5-24,89.1,75.4,58.9,32.0,24.8,18.0,25,16,10,29.79,29.65,14,4,23,0.00
2013-5-25,88.0,76.7,65.1,32.0,26.0,21.0,27,16,9,29.75,29.66,19,6,25,0.00
2013-5-26,85.9,76.0,65.3,35.0,32.0,30.0,27,20,14,29.75,29.66,15,8,30,0.00
2013-5-27,91.8,77.3,61.9,37.0,33.2,30.0,34,21,12,29.75,29.56,13,4,17,0.00
2013-5-28,90.8,77.3,65.8,42.0,33.6,25.0,31,21,14,29.58,29.44,16,4,20,0.00
2013-5-29,90.4,76.7,61.3,41.0,35.8,33.0,37,24,15,29.66,29.48,13,3,19,0.00
2013-5-30,96.0,82.4,66.2,40.0,34.5,30.0,30,19,12,29.70,29.52,16,4,20,0.00
2013-5-31,98.3,83.8,68.7,36.0,29.8,21.0,22,14,10,29.79,29.59,12,1,24,0.00
2013-6-1,99.6,82.9,70.2,33.0,27.2,22.0,22,14,8,29.84,29.62,7,1,13,0.00
2013-6-2,102.2,87.3,71.6,40.0,29.7,21.0,26,13,7,29.63,29.43,13,4,22,0.00
2013-6-3,100.1,89.3,78.9,41.0,35.8,30.0,22,15,10,29.57,29.47,11,5,25,0.00
2013-6-4,99.1,87.8,76.1,44.0,29.8,15.0,25,14,5,29.65,29.54,16,4,21,0.00
2013-6-5,102.5,90.3,77.5,31.0,25.2,19.0,15,10,5,29.71,29.55,14,4,17,0.00
2013-6-6,102.7,91.9,79.5,36.0,25.8,18.0,18,10,5,29.67,29.52,10,4,16,0.00
2013-6-7,104.8,93.9,82.2,37.0,22.9,-1.0,17,8,2,29.63,29.48,11,3,17,0.00
2013-6-8,109.5,97.2,87.1,33.0,23.0,16.0,13,7,4,29.56,29.46,18,5,25,0.00
2013-6-9,103.6,93.9,81.8,41.0,24.6,12.0,17,9,4,29.63,29.52,24,8,29,0.00
2013-6-10,96.0,86.3,78.1,41.0,25.2,4.0,21,12,4,29.61,29.50,33,10,41,0.00
2013-6-11,98.2,85.7,72.6,38.0,31.8,22.0,26,16,7,29.77,29.61,17,5,25,0.00
2013-6-12,101.0,91.7,82.9,34.0,28.7,21.0,14,11,6,29.71,29.57,25,9,43,0.00
2013-6-13,95.9,86.6,76.7,39.0,17.0,-23.0,26,11,1,29.69,29.57,21,11,31,0.00
2013-6-14,98.3,86.2,75.5,21.0,-0.2,-99.9,12,6,1,29.70,29.54,15,6,24,0.00
2013-6-15,97.1,87.2,77.5,17.0,-7.0,-99.9,10,4,1,29.67,29.58,17,7,29,0.00
2013-6-16,96.0,86.2,75.7,23.0,0.3,-99.9,12,5,1,29.76,29.65,18,8,24,0.00
2013-6-17,99.1,88.4,78.2,27.0,13.2,-9.0,14,7,2,29.75,29.59,14,5,19,0.00
2013-6-18,96.8,87.3,77.6,27.0,17.4,-20.0,14,8,1,29.63,29.45,22,11,33,0.00
2013-6-19,92.7,82.2,72.2,35.0,21.2,-2.0,23,13,4,29.59,29.46,24,8,27,0.00
2013-6-20,92.7,82.8,71.4,16.0,7.9,-12.0,10,6,3,29.64,29.54,20,8,25,0.00
2013-6-21,94.3,84.4,75.0,26.0,18.7,1.0,16,9,3,29.67,29.54,20,7,26,0.00
2013-6-22,97.2,84.1,74.0,28.0,20.5,17.0,13,10,6,29.69,29.52,14,6,24,0.00
2013-6-23,94.5,86.3,78.7,36.0,27.0,14.0,21,12,6,29.56,29.40,21,9,31,0.00
2013-6-24,86.5,79.6,73.2,46.0,38.8,28.0,34,24,13,29.64,29.45,25,11,32,0.00
2013-6-25,94.8,83.3,70.7,48.0,45.8,42.0,45,28,18,29.75,29.64,16,8,24,0.00
2013-6-26,100.8,90.4,80.2,51.0,47.5,42.0,34,24,14,29.79,29.68,15,6,22,0.00
2013-6-27,106.3,94.5,86.2,53.0,44.8,35.0,26,19,11,29.84,29.70,12,4,16,0.00
2013-6-28,110.6,99.0,86.7,48.0,42.5,35.0,25,15,8,29.76,29.57,7,3,14,0.00
2013-6-29,111.8,101.3,89.4,46.0,37.8,31.0,20,12,7,29.65,29.48,13,3,14,0.00
2013-6-30,112.6,102.3,92.4,49.0,37.1,28.0,18,11,7,29.59,29.44,11,4,16,0.00
2013-7-1,109.3,100.9,93.2,51.0,45.2,37.0,23,15,10,29.61,29.51,19,5,24,0.00
2013-7-2,108.7,100.2,87.6,48.0,44.4,41.0,24,15,10,29.66,29.50,20,7,22,0.00
2013-7-3,109.6,99.4,90.4,51.0,42.7,28.0,22,15,6,29.60,29.43,11,3,16,0.00
2013-7-4,109.1,99.3,89.2,51.0,45.4,41.0,24,16,11,29.51,29.37,14,3,17,0.00
2013-7-5,101.7,94.6,85.9,60.0,49.4,42.0,40,22,14,29.52,29.41,24,8,34,0.09
2013-7-6,100.1,91.6,84.4,56.0,48.3,43.0,33,23,15,29.59,29.47,12,5,22,0.00
2013-7-7,99.2,91.0,80.4,62.0,46.9,-99.9,49,24,14,29.62,29.49,17,4,24,0.02
2013-7-8,102.6,92.0,81.0,47.0,31.7,21.0,23,13,6,29.73,29.60,24,6,26,0.01
2013-7-9,104.2,95.0,85.6,34.0,27.8,24.0,13,9,6,29.81,29.67,16,6,23,0.00
2013-7-10,105.3,94.8,88.4,61.0,44.9,30.0,33,19,9,29.71,29.56,22,7,27,0.00
2013-7-11,90.2,84.0,78.2,63.0,57.9,44.0,58,42,20,29.73,29.59,23,7,28,0.00
2013-7-12,89.2,81.1,72.5,67.0,60.0,55.0,81,50,34,29.78,29.68,9,2,17,0.03
2013-7-13,99.2,87.9,76.5,61.0,54.5,45.0,54,34,16,29.80,29.64,14,3,22,0.02
2013-7-14,99.5,91.3,82.0,57.0,49.4,41.0,31,24,18,29.73,29.59,16,5,23,0.00
2013-7-15,102.0,93.3,86.3,57.0,47.0,39.0,36,21,15,29.64,29.47,15,5,21,0.00
2013-7-16,99.6,91.2,82.5,52.0,41.1,35.0,21,17,12,29.71,29.57,22,7,31,0.00
2013-7-17,101.4,91.2,78.3,51.0,38.5,5.0,33,17,4,29.82,29.68,13,4,22,0.00
2013-7-18,106.3,95.6,85.3,54.0,31.1,6.0,24,11,4,29.77,29.58,13,4,18,0.00
2013-7-19,105.3,92.0,76.9,67.0,53.6,46.0,71,29,18,29.69,29.52,17,4,42,0.03
2013-7-20,99.6,87.5,74.4,68.0,60.6,55.0,78,42,26,29.72,29.52,23,5,40,0.00
2013-7-21,88.2,80.6,75.3,66.0,64.2,60.0,73,58,45,29.77,29.60,12,4,17,0.00
2013-7-22,94.1,84.5,75.4,65.0,61.6,56.0,68,48,30,29.82,29.69,12,4,18,0.00
2013-7-23,91.8,84.3,75.5,66.0,59.7,58.0,58,44,35,29.83,29.70,10,3,14,0.00
2013-7-24,101.9,92.4,81.9,61.0,56.8,51.0,47,32,19,29.75,29.58,8,3,14,0.00
2013-7-25,104.0,95.3,84.4,57.0,51.6,48.0,33,23,17,29.73,29.61,24,5,25,0.00
2013-7-26,100.5,90.3,85.1,61.0,55.9,52.0,44,31,22,29.81,29.73,23,6,28,0.00
2013-7-27,89.0,81.6,73.9,63.0,61.2,59.0,65,51,36,29.86,29.68,16,5,26,0.00
2013-7-28,91.9,82.0,75.4,64.0,58.6,50.0,62,46,28,29.70,29.61,19,4,29,0.00
2013-7-29,97.1,85.3,72.0,58.0,48.8,35.0,59,32,12,29.79,29.69,18,4,23,0.00
2013-7-30,98.3,90.7,80.4,49.0,41.8,33.0,23,18,15,29.89,29.77,18,7,22,0.00
2013-7-31,101.6,92.2,79.3,52.0,47.3,41.0,36,22,13,29.86,29.66,18,6,28,0.00
2013-8-1,100.3,91.7,82.8,46.0,32.0,16.0,22,13,6,29.72,29.57,22,7,34,0.00
2013-8-2,98.4,88.7,78.7,37.0,26.8,15.0,17,11,5,29.72,29.61,16,6,24,0.00
2013-8-3,99.2,89.5,78.1,37.0,31.1,25.0,19,13,8,29.76,29.66,16,5,23,0.00
2013-8-4,100.9,91.8,80.8,46.0,35.8,27.0,27,14,8,29.76,29.63,15,5,22,0.00
2013-8-5,99.5,91.6,82.8,36.0,21.7,8.0,16,8,4,29.76,29.62,18,7,24,0.00
2013-8-6,98.5,89.9,81.5,39.0,25.2,6.0,17,10,4,29.76,29.65,15,6,20,0.00
2013-8-7,94.1,87.0,79.5,32.0,17.0,-7.0,15,8,2,29.79,29.68,24,9,27,0.00
2013-8-8,94.3,84.3,74.6,36.0,27.1,18.0,18,13,7,29.76,29.64,20,8,25,0.00
2013-8-9,98.0,86.1,73.3,40.0,33.2,29.0,21,15,11,29.74,29.64,17,4,22,0.00
2013-8-10,97.7,87.1,73.8,39.0,32.7,28.0,20,14,11,29.78,29.68,17,4,23,0.00
2013-8-11,99.4,85.4,72.8,39.0,32.2,27.0,27,16,9,29.81,29.65,9,3,17,0.00
2013-8-12,103.4,87.4,71.5,40.0,31.9,26.0,26,14,8,29.80,29.65,10,2,14,0.00
2013-8-13,104.3,89.0,73.1,39.0,29.7,22.0,25,12,8,29.81,29.67,11,3,15,0.00
2013-8-14,104.7,89.1,73.7,40.0,30.7,23.0,22,13,8,29.80,29.64,9,2,15,0.00
2013-8-15,103.7,91.6,80.6,53.0,42.1,27.0,27,18,12,29.79,29.64,10,3,13,0.00
2013-8-16,105.2,94.6,84.3,57.0,51.3,48.0,30,23,17,29.76,29.62,12,3,18,0.00
2013-8-17,105.5,95.1,85.8,54.0,50.1,47.0,29,22,15,29.74,29.57,12,5,24,0.00
2013-8-18,100.4,82.3,71.8,67.0,58.0,52.0,81,47,25,29.89,29.66,21,3,34,0.54
2013-8-19,94.4,81.7,69.9,64.0,60.2,58.0,77,50,30,29.93,29.73,9,3,18,0.02
2013-8-20,100.6,90.0,77.7,62.0,54.1,41.0,54,32,17,29.76,29.60,13,3,22,0.00
2013-8-21,100.3,91.0,80.8,53.0,46.5,37.0,35,22,12,29.75,29.63,11,4,18,0.00
2013-8-22,99.2,89.1,82.6,54.0,48.2,44.0,35,25,16,29.76,29.64,21,6,33,0.00
2013-8-23,91.7,80.7,73.7,64.0,57.1,51.0,66,46,29,29.76,29.62,18,5,28,0.02
2013-8-24,86.1,80.0,75.2,63.0,58.0,54.0,62,48,34,29.77,29.68,23,6,34,0.00
2013-8-25,84.8,75.6,70.2,64.0,59.1,54.0,77,57,43,29.93,29.77,19,4,32,0.00
2013-8-26,71.3,69.8,68.5,66.0,63.1,60.0,88,79,71,29.95,29.86,7,2,11,0.00
2013-8-27,92.8,78.7,67.3,63.0,60.9,57.0,82,57,31,29.88,29.70,7,3,12,0.00
2013-8-28,92.6,83.5,74.6,65.0,59.6,53.0,60,45,28,29.80,29.70,16,2,24,0.00
2013-8-29,93.7,86.7,78.5,66.0,62.3,58.0,65,45,37,29.86,29.76,16,4,22,0.00
2013-8-30,89.4,81.5,74.1,72.0,65.1,59.0,82,59,44,29.93,29.79,13,4,16,0.04
2013-8-31,89.7,80.1,71.0,69.0,65.8,64.0,83,62,46,29.84,29.72,20,3,23,0.00
2013-9-1,92.5,80.9,72.1,69.0,66.2,59.0,81,63,33,29.82,29.69,10,3,14,0.00
2013-9-2,94.6,84.5,75.4,67.0,63.1,56.0,72,51,29,29.82,29.66,18,3,18,0.00
2013-9-3,92.3,83.3,73.0,65.0,60.2,55.0,72,48,31,29.86,29.71,11,5,22,0.00
2013-9-4,95.5,83.6,75.3,64.0,58.7,51.0,67,44,25,29.84,29.73,22,3,43,0.00
2013-9-5,96.8,84.4,73.2,61.0,57.5,52.0,60,42,23,29.86,29.73,9,3,19,0.00
2013-9-6,98.2,85.5,81.1,59.0,54.9,50.0,44,35,23,29.78,29.69,18,4,26,0.00
2013-9-7,83.8,79.9,75.7,60.0,57.4,54.0,57,46,36,29.84,29.75,15,3,22,0.00
2013-9-8,82.1,74.4,67.1,66.0,61.9,58.0,90,67,49,29.84,29.69,9,3,14,0.00
2013-9-9,87.8,76.0,68.4,65.0,60.5,54.0,83,61,32,29.73,29.58,14,3,28,0.00
2013-9-10,81.2,73.6,68.6,63.0,57.4,51.0,80,58,38,29.78,29.69,11,3,12,0.00
2013-9-11,80.1,71.5,65.9,61.0,57.9,53.0,84,64,41,29.88,29.78,14,3,23,0.00
2013-9-12,83.3,71.4,64.8,62.0,60.3,57.0,90,70,45,29.91,29.77,7,1,9,0.00
2013-9-13,91.8,79.1,69.6,59.0,56.5,51.0,67,48,27,29.80,29.57,8,1,12,0.00
2013-9-14,90.2,81.0,73.1,58.0,54.4,50.0,56,41,26,29.67,29.55,9,2,16,0.00
2013-9-15,95.4,84.0,73.0,56.0,51.7,46.0,50,34,21,29.72,29.61,11,3,17,0.00
2013-9-16,97.2,86.6,77.3,55.0,48.8,42.0,37,28,16,29.73,29.57,13,3,18,0.00
2013-9-17,96.1,86.8,78.7,44.0,36.3,20.0,28,18,8,29.60,29.42,24,9,38,0.00
2013-9-18,89.0,80.3,71.9,35.0,30.0,22.0,25,17,9,29.63,29.47,15,4,25,0.00
2013-9-19,88.4,79.0,69.7,39.0,31.1,26.0,26,18,11,29.76,29.63,15,5,18,0.00
2013-9-20,92.2,81.6,71.5,37.0,32.6,28.0,26,17,12,29.74,29.58,15,5,26,0.00
2013-9-21,89.6,80.3,70.0,44.0,34.4,17.0,36,20,7,29.64,29.44,29,9,37,0.00
2013-9-22,77.1,68.2,58.6,44.0,36.1,29.0,48,32,22,29.75,29.44,23,7,38,0.00
2013-9-23,85.1,72.9,63.7,37.0,31.9,27.0,31,23,15,29.89,29.75,12,3,14,0.00
2013-9-24,89.3,77.7,64.9,38.0,29.5,22.0,31,18,9,29.86,29.60,22,6,28,0.00
2013-9-25,83.6,76.0,65.9,38.0,30.1,17.0,34,20,9,29.59,29.33,30,16,42,0.00
2013-9-26,70.3,63.0,56.0,36.0,25.1,15.0,36,24,14,29.81,29.44,18,8,24,0.00
2013-9-27,70.7,61.9,53.3,31.0,27.8,23.0,41,28,20,30.02,29.81,12,4,17,0.00
2013-9-28,77.5,66.1,54.7,31.0,25.4,19.0,35,22,13,30.10,29.98,10,3,12,0.00
2013-9-29,85.3,72.5,57.5,34.0,21.8,17.0,30,16,8,30.02,29.84,16,3,35,0.00
2013-9-30,84.4,74.8,64.7,33.0,26.9,18.0,25,17,13,29.86,29.71,11,3,19,0.00
2013-10-1,88.6,77.9,66.7,37.0,28.8,25.0,32,17,11,29.79,29.66,13,5,19,0.00
2013-10-2,86.7,77.6,69.6,39.0,34.1,28.0,29,21,15,29.74,29.60,18,8,29,0.00
2013-10-3,80.0,70.0,59.0,34.0,26.4,6.0,29,20,10,29.90,29.58,19,9,27,0.00
2013-10-4,65.8,58.9,51.6,25.0,20.6,14.0,29,23,17,30.23,29.91,20,10,28,0.00
2013-10-5,69.7,60.2,49.7,24.0,21.7,19.0,35,23,15,30.36,30.21,16,6,22,0.00
2013-10-6,76.5,65.7,55.1,24.0,18.4,13.0,26,17,9,30.23,30.00,11,3,13,0.00
2013-10-7,79.9,70.4,60.8,30.0,18.7,11.0,21,14,10,30.00,29.76,9,3,14,0.00
2013-10-8,78.8,71.4,65.6,24.0,16.8,11.0,20,13,10,29.76,29.52,17,7,30,0.00
2013-10-9,66.7,59.1,47.9,41.0,33.6,23.0,72,40,19,29.63,29.45,16,7,20,0.00
2013-10-10,63.9,54.8,47.3,41.0,39.0,37.0,73,57,38,29.94,29.63,19,6,21,0.00
2013-10-11,68.8,58.7,49.8,41.0,38.1,35.0,64,48,32,30.05,29.91,9,2,12,0.00
2013-10-12,74.6,64.1,52.7,40.0,35.4,30.0,52,36,22,29.96,29.76,15,2,16,0.00
2013-10-13,70.8,64.0,57.1,34.0,31.3,26.0,42,30,19,29.96,29.71,24,8,29,0.00
2013-10-14,68.0,59.7,51.1,36.0,33.3,28.0,53,38,25,30.10,29.96,13,4,18,0.00
2013-10-15,67.9,60.2,52.4,32.0,28.3,25.0,42,31,21,30.07,29.95,14,6,22,0.00
2013-10-16,67.0,58.4,49.8,28.0,24.1,19.0,39,28,17,30.18,30.03,12,4,16,0.00
2013-10-17,72.7,62.1,51.1,25.0,21.1,19.0,29,21,15,30.06,29.89,7,2,12,0.00
2013-10-18,73.5,64.4,55.9,27.0,22.7,19.0,26,21,16,30.08,29.93,11,3,15,0.00
2013-10-19,76.8,66.3,56.3,27.0,22.8,17.0,28,20,12,30.08,29.93,7,2,11,0.00
2013-10-20,81.0,69.4,57.7,29.0,17.6,10.0,26,14,7,29.93,29.78,7,3,9,0.00
2013-10-21,76.8,68.0,58.9,27.0,22.0,13.0,25,18,12,29.99,29.84,8,3,14,0.00
2013-10-22,76.6,68.2,59.7,28.0,24.5,22.0,26,19,14,30.03,29.90,11,3,14,0.00
2013-10-23,76.3,68.7,59.9,27.0,23.6,21.0,25,18,14,29.93,29.82,8,3,11,0.00
2013-10-24,80.8,70.6,61.0,29.0,24.2,20.0,24,18,12,29.93,29.82,8,3,10,0.00
2013-10-25,79.3,69.6,56.6,34.0,30.3,26.0,36,24,15,30.04,29.93,7,2,10,0.00
2013-10-26,82.7,68.8,56.2,39.0,32.8,26.0,43,27,19,30.11,29.95,5,1,8,0.00
2013-10-27,80.2,68.5,57.6,34.0,27.3,20.0,38,23,11,29.94,29.47,32,6,34,0.00
2013-10-28,66.6,58.9,51.5,36.0,31.7,26.0,50,36,27,29.71,29.40,37,17,47,0.00
2013-10-29,58.6,51.7,46.6,36.0,33.4,30.0,63,51,36,29.93,29.71,22,6,24,0.00
2013-10-30,62.5,51.7,42.2,36.0,31.4,25.0,70,48,29,30.08,29.93,9,2,12,0.00
2013-10-31,68.8,55.3,43.2,33.0,28.7,25.0,52,37,26,30.18,30.06,4,1,9,0.00
2013-11-1,72.8,57.5,46.7,37.0,32.0,28.0,52,39,25,30.23,30.08,3,0,10,0.00
2013-11-2,70.6,60.2,49.1,33.0,29.6,22.0,48,33,21,30.09,29.77,8,2,12,0.00
2013-11-3,72.9,62.8,54.4,30.0,25.2,22.0,33,24,16,29.77,29.69,11,3,18,0.00
2013-11-4,58.3,52.7,45.3,31.0,24.7,20.0,48,35,25,30.00,29.70,14,6,21,0.00
2013-11-5,56.2,48.9,41.4,27.0,16.9,12.0,51,30,19,30.31,30.01,17,5,24,0.00
2013-11-6,63.7,53.1,40.1,19.0,16.9,14.0,40,25,17,30.41,30.29,7,2,10,0.00
2013-11-7,66.5,58.7,49.6,23.0,18.9,16.0,32,22,15,30.29,30.05,9,2,13,0.00
2013-11-8,67.5,58.9,49.3,25.0,20.7,17.0,36,23,18,30.07,29.93,7,2,9,0.00
2013-11-9,73.7,58.9,45.5,30.0,24.2,21.0,41,27,19,30.11,29.99,4,1,7,0.00
2013-11-10,71.3,62.8,53.5,28.0,23.8,20.0,28,23,18,30.15,30.05,7,2,10,0.00
2013-11-11,73.8,64.8,55.4,27.0,23.7,20.0,29,21,16,30.17,30.08,7,3,10,0.00
2013-11-12,72.9,66.6,59.8,25.0,21.2,18.0,23,18,14,30.24,30.11,10,2,11,0.00
2013-11-13,74.6,67.5,60.9,26.0,20.9,17.0,23,17,14,30.11,29.96,6,2,8,0.00
2013-11-14,71.5,64.2,54.7,31.0,24.6,19.0,32,22,17,30.03,29.61,10,3,14,0.00
2013-11-15,70.5,63.7,55.2,29.0,24.4,19.0,31,23,16,29.60,29.49,13,3,21,0.00
2013-11-16,62.9,57.6,53.2,36.0,31.1,21.0,48,37,25,29.81,29.56,24,8,28,0.00
2013-11-17,64.0,55.3,45.8,39.0,36.3,33.0,62,50,38,30.09,29.81,14,3,18,0.00
2013-11-18,63.1,56.3,49.3,39.0,36.8,35.0,59,49,40,30.13,29.96,7,2,9,0.00
2013-11-19,63.6,57.2,52.7,40.0,37.6,35.0,57,48,38,29.95,29.83,8,2,13,0.00
2013-11-20,64.0,56.6,49.5,40.0,37.8,35.0,57,50,42,29.84,29.74,7,2,11,0.00
2013-11-21,61.9,52.0,41.6,48.0,42.9,39.0,92,73,49,29.99,29.74,17,5,25,0.48
2013-11-22,43.7,41.5,40.0,40.0,38.4,37.0,98,89,81,30.09,29.95,22,6,30,1.08
2013-11-23,43.3,41.8,40.5,41.0,39.7,39.0,95,92,84,30.18,30.05,11,3,15,0.30
2013-11-24,53.9,47.0,42.6,40.0,38.1,36.0,87,72,55,30.23,30.17,8,1,9,0.00
2013-11-25,60.1,50.4,42.9,36.0,34.5,32.0,75,56,36,30.31,30.21,9,2,14,0.00
2013-11-26,59.3,52.6,45.9,34.0,30.0,28.0,58,43,32,30.36,30.20,11,2,11,0.00
2013-11-27,57.6,51.5,45.7,35.0,32.8,29.0,61,49,40,30.19,30.01,9,2,11,0.00
2013-11-28,56.2,50.0,44.4,36.0,33.8,32.0,66,54,42,30.16,30.02,7,2,10,0.00
2013-11-29,58.3,51.5,44.7,35.0,33.1,32.0,61,50,40,30.26,30.15,10,2,12,0.00
2013-11-30,60.7,52.8,45.3,34.0,32.2,30.0,60,46,36,30.28,30.16,5,2,9,0.00
2013-12-1,61.5,52.9,46.2,33.0,30.5,28.0,57,43,31,30.34,30.21,7,2,10,0.00
2013-12-2,64.3,53.3,45.2,37.0,32.6,27.0,61,47,29,30.21,29.75,9,2,13,0.00
2013-12-3,65.5,53.6,37.2,39.0,35.3,29.0,82,52,29,29.75,29.39,31,11,42,0.05
2013-12-4,40.4,35.1,28.9,31.0,18.4,7.0,89,54,26,30.11,29.65,17,7,24,0.02
2013-12-5,38.2,30.4,25.3,14.0,10.6,8.0,59,45,31,30.23,30.09,7,2,10,0.00
2013-12-6,39.9,31.5,23.1,19.0,14.1,10.0,60,49,40,30.32,30.13,11,2,13,0.00
2013-12-7,47.4,40.6,31.1,33.0,20.3,5.0,65,46,27,30.12,29.80,34,9,38,0.00
2013-12-8,37.5,32.3,27.8,7.0,4.5,1.0,38,31,25,30.35,30.07,13,5,16,0.00
2013-12-9,34.8,30.1,25.9,6.0,2.4,-1.0,41,31,22,30.64,30.35,19,8,28,0.00
2013-12-10,40.3,33.6,25.6,8.0,4.9,2.0,43,30,23,30.62,30.36,8,3,11,0.00
2013-12-11,48.0,40.5,32.9,18.0,13.5,6.0,41,34,27,30.46,30.36,9,2,13,0.00
2013-12-12,53.4,43.7,34.2,19.0,16.5,14.0,53,35,22,30.39,30.17,7,2,11,0.00
2013-12-13,54.9,45.4,36.6,21.0,18.3,15.0,46,34,24,30.38,30.14,9,2,10,0.00
2013-12-14,53.3,46.0,40.4,24.0,21.3,19.0,47,38,28,30.54,30.38,12,6,18,0.00
2013-12-15,58.4,49.4,41.1,25.0,22.9,21.0,49,36,26,30.49,30.34,6,2,9,0.00
2013-12-16,61.7,54.4,47.0,26.0,24.2,22.0,39,31,25,30.37,30.25,6,2,7,0.00
2013-12-17,62.8,56.2,47.7,28.0,24.1,22.0,39,29,22,30.33,30.10,7,2,9,0.00
2013-12-18,58.3,52.9,49.1,30.0,26.2,24.0,42,36,29,30.10,29.65,12,2,16,0.00
2013-12-19,55.0,50.8,42.3,35.0,29.1,22.0,72,45,29,29.74,29.55,23,6,28,0.00
2013-12-20,53.7,45.2,38.9,37.0,26.1,12.0,78,49,29,29.90,29.74,12,2,17,0.00
2013-12-21,61.8,48.5,36.9,31.0,23.1,12.0,49,37,30,30.08,29.82,8,1,17,0.00
2013-12-22,55.6,48.3,41.2,29.0,26.3,26.0,54,43,33,30.36,30.08,7,2,9,0.00
2013-12-23,61.7,50.2,37.7,33.0,29.4,23.0,69,46,32,30.48,30.34,5,1,6,0.00
2013-12-24,60.7,52.7,45.9,33.0,30.3,28.0,53,43,34,30.35,30.24,9,3,16,0.00
2013-12-25,58.1,49.9,40.4,29.0,21.3,13.0,57,35,20,30.44,30.33,10,3,16,0.00
2013-12-26,63.8,50.2,42.2,20.0,15.5,10.0,31,25,17,30.40,30.26,5,2,7,0.00
2013-12-27,66.2,51.6,40.7,24.0,18.2,10.0,37,27,19,30.34,30.11,4,1,6,0.00
2013-12-28,55.9,49.5,42.8,22.0,19.4,17.0,41,31,23,30.13,29.98,8,2,11,0.00
2013-12-29,53.1,47.5,42.8,22.0,14.7,10.0,42,28,19,30.32,30.14,16,6,23,0.00
2013-12-30,56.3,48.5,41.0,14.0,11.4,8.0,30,23,15,30.38,30.25,6,2,8,0.00
2013-12-31,56.9,49.7,41.9,18.0,14.3,10.0,29,24,20,30.27,30.14,6,2,9,0.00
2014-1-1,61.7,53.5,46.2,24.0,19.4,14.0,33,26,22,30.29,30.17,9,2,13,0.00
2014-1-2,60.0,52.8,43.8,25.0,21.8,15.0,44,30,23,30.25,30.09,10,3,13,0.00